Wind_Speed
6 7 6 6 6 6 5 5 5 5 5 5 4 4 4 3 4 3 3 3 3 3 3 3 3 4 4 5 4 4 3 3 3 2 2 2 2 2 2 2 2 2 2
7 7 6 6 6 6 5 5 6 6 5 4 4 4 3 3 3 3 3 3 3 3 3 3 3 3 4 5 4 4 4 3 3 2 2 2 2 2 2 2 1 2 3
7 7 7 6 6 6 5 6 6 6 5 4 5 4 4 3 3 3 3 3 3 3 3 2 3 3 4 4 4 4 4 3 3 3 3 2 2 3 2 2 2 2 2
8 7 7 7 7 6 6 6 6 5 5 5 4 4 4 3 3 3 3 3 3 3 2 2 3 4 4 4 4 4 4 3 3 3 3 2 3 3 2 3 3 3 2
8 7 7 7 6 6 6 6 6 6 5 4 4 4 3 3 3 3 3 3 3 3 2 2 4 4 4 5 4 4 4 3 3 3 3 3 3 3 2 3 3 3 3
8 8 7 7 6 6 7 6 6 5 4 4 4 4 3 3 3 3 3 3 3 3 3 3 3 4 3 4 4 3 3 3 3 3 3 3 3 3 3 4 3 3 3
9 8 8 7 6 7 7 6 6 5 5 4 4 4 4 4 4 4 4 4 4 3 3 3 3 4 4 3 3 3 3 3 3 3 4 4 4 4 4 4 5 5 4
10 9 8 8 7 7 7 6 6 6 6 5 5 5 4 4 4 4 4 4 4 4 3 3 4 4 4 4 4 4 4 4 4 4 4 5 5 5 5 5 5 6 5
10 9 8 7 8 8 7 7 6 7 6 6 6 5 5 5 5 5 5 5 4 5 4 5 5 6 6 5 5 5 5 5 5 4 5 5 5 5 6 5 6 6 6
11 9 8 8 8 8 8 8 7 7 7 6 5 6 6 6 6 6 6 6 5 5 5 5 6 7 7 6 6 7 7 6 6 6 6 6 6 6 6 7 7 7 7
10 10 9 9 9 9 8 8 8 7 7 7 6 6 7 7 7 7 6 6 6 5 5 6 6 7 8 8 7 8 8 8 7 7 7 7 7 7 8 8 8 8 8
11 10 10 9 9 10 9 9 9 9 9 8 7 7 7 7 6 6 6 6 6 6 6 6 7 7 9 9 9 9 9 9 9 8 9 9 8 8 8 8 8 8 8
12 11 11 11 10 10 10 10 10 10 10 10 9 9 9 8 7 7 6 6 6 7 7 7 7 8 9 9 9 9 9 9 9 9 10 10 9 9 9 9 9 10 10
12 12 12 12 12 11 11 10 10 10 10 10 10 10 10 9 8 8 8 8 8 8 7 7 7 7 8 9 9 9 9 9 9 9 9 10 10 9 9 10 11 11 12
13 13 13 13 13 13 12 11 11 11 11 10 10 10 10 9 9 10 9 9 8 7 7 8 7 7 8 8 8 9 8 8 8 9 9 9 10 9 10 10 11 12 12
14 13 14 14 14 14 13 13 12 13 12 11 10 10 10 9 9 10 10 9 9 8 8 9 8 8 8 8 8 8 8 8 9 8 9 9 9 9 10 11 12 12 13
15 14 14 14 15 15 14 14 13 14 13 12 11 10 10 10 10 10 11 10 10 9 9 9 8 8 8 7 8 8 8 8 9 9 10 10 10 10 11 12 13 13 13
15 14 14 14 14 14 14 14 14 14 14 13 12 11 10 10 10 11 11 11 10 10 10 9 8 8 8 7 8 8 8 8 8 10 10 10 10 11 12 12 11 11 11
15 15 16 15 14 14 14 14 15 15 14 14 13 11 11 11 11 12 12 11 11 10 10 9 9 9 9 9 9 9 9 9 10 10 11 11 10 11 12 11 11 11 12
17 16 16 15 15 15 15 15 16 15 15 15 14 13 12 12 12 12 12 11 11 11 10 10 10 10 10 10 10 10 10 11 11 12 12 12 12 11 11 11 11 12 12
19 18 17 17 16 16 16 16 16 16 16 16 14 14 13 13 13 12 12 12 12 12 11 11 11 12 12 12 12 12 12 12 13 13 13 13 13 12 12 12 13 13 12
19 18 18 17 16 16 16 16 16 16 16 15 14 14 14 14 14 13 13 13 13 13 13 13 13 12 13 13 13 13 13 14 14 14 13 13 13 14 14 14 15 15 14
19 19 19 18 17 17 16 16 17 17 17 17 16 15 15 15 14 14 14 14 14 14 14 13 13 13 14 14 14 14 14 15 15 14 14 14 15 15 15 16 17 16 16
20 19 19 18 18 17 17 17 18 18 18 17 18 17 16 16 15 14 14 15 15 15 15 15 15 16 15 15 15 15 16 16 16 15 15 15 15 16 17 18 18 18 18
20 19 19 19 19 19 18 18 18 19 19 19 19 18 18 17 16 16 16 16 16 16 16 16 16 17 16 16 17 17 17 18 18 17 17 16 17 17 18 19 19 19 20
21 20 19 19 20 19 19 19 19 19 20 19 19 19 19 18 17 17 17 17 16 17 17 17 17 17 17 17 18 18 18 19 19 19 19 18 18 18 19 20 20 20 20
Wind_Direction
341 335 330 333 334 332 323 317 317 310 301 298 295 292 289 283 276 270 267 264 264 250 244 232 210 196 199 201 206 202 194 185 184 185 218 236 231 218 219 209 186 190 190
339 341 333 334 335 331 327 322 317 312 304 298 295 298 296 285 278 270 268 266 266 251 240 236 224 212 202 205 206 202 196 189 185 198 227 240 228 221 216 215 216 195 186
332 341 339 337 339 332 327 325 318 310 299 297 299 296 290 281 278 274 269 266 266 261 239 221 215 202 197 196 191 194 193 192 201 214 221 226 240 232 221 240 244 235 209
334 339 341 342 338 334 332 326 322 314 298 299 303 298 290 289 280 275 267 262 259 256 223 203 196 197 192 188 192 191 192 204 210 224 226 231 242 240 244 256 247 245 250
336 340 340 340 338 335 333 331 324 318 310 303 306 304 299 302 302 279 266 263 262 256 237 220 216 207 200 191 188 190 195 208 220 230 228 231 237 250 257 271 256 248 269
333 335 338 335 339 337 336 331 322 320 315 302 313 309 306 307 304 286 273 265 264 260 246 239 230 222 217 206 194 193 210 220 235 239 225 240 249 258 267 271 273 279 272
329 332 333 328 332 335 337 335 323 318 310 302 303 306 304 296 295 290 277 264 259 255 252 251 234 228 214 216 218 207 228 235 243 252 247 253 258 258 263 271 281 292 278
321 324 324 322 326 326 328 333 328 317 311 310 308 308 294 295 282 289 277 274 267 259 252 241 235 232 229 228 228 230 238 246 253 260 260 261 262 258 259 266 279 285 279
315 318 319 321 323 323 322 323 322 316 313 307 307 306 304 300 280 280 278 275 268 260 254 241 238 242 243 238 236 241 245 257 261 265 267 265 263 261 262 268 280 284 281
310 314 314 315 315 318 321 321 316 310 314 311 302 298 298 296 284 280 277 273 269 262 264 253 247 249 245 243 245 249 250 262 261 260 265 262 263 266 269 275 280 277 279
311 313 311 312 313 313 316 319 318 313 314 312 302 295 295 297 295 288 282 277 273 272 272 263 259 256 253 248 250 254 258 261 266 262 263 265 264 267 269 272 275 270 273
306 308 308 309 310 312 313 313 314 312 313 315 312 304 303 301 301 296 294 288 283 285 282 273 260 257 256 254 255 256 258 261 263 260 260 263 263 269 271 271 270 270 274
301 305 308 309 308 310 310 308 308 309 309 307 311 312 310 308 308 304 298 295 288 290 288 285 275 266 262 261 262 261 259 261 260 259 265 267 269 274 275 272 270 274 274
296 299 301 305 305 304 303 304 305 305 309 305 302 309 308 309 308 302 304 299 290 288 288 288 288 284 276 268 262 257 259 260 263 266 270 269 270 271 272 273 274 277 275
293 295 298 300 300 299 297 299 301 302 306 304 302 303 303 304 302 301 303 304 300 298 298 294 294 292 293 279 265 263 266 268 272 276 272 278 280 274 274 276 276 275 275
289 291 294 296 297 297 294 295 297 299 301 302 299 297 298 302 302 305 304 303 298 296 296 292 289 289 290 285 277 272 273 273 274 279 279 282 282 282 280 279 280 278 275
285 287 290 294 294 294 293 293 294 293 298 300 299 295 292 297 298 299 300 298 295 291 290 288 285 285 284 283 279 277 277 274 271 275 277 280 277 279 284 281 281 280 274
282 286 289 292 292 293 294 293 293 292 296 299 298 292 290 294 295 293 296 293 291 290 288 288 286 288 286 281 277 279 283 282 274 273 274 276 277 279 281 279 277 278 278
280 283 286 291 290 290 290 291 291 290 292 299 297 292 290 292 293 290 293 292 289 287 283 284 285 287 288 284 278 277 281 282 279 277 274 273 277 282 280 277 275 278 280
277 280 282 286 288 288 288 289 288 287 289 295 295 290 290 289 289 289 294 293 290 287 282 280 283 286 288 287 285 283 283 282 279 278 274 272 274 279 279 277 277 277 279
276 277 278 281 285 286 287 286 286 287 287 291 291 290 291 289 285 282 288 293 291 286 279 278 281 286 287 286 286 284 284 285 283 280 278 277 277 277 277 279 278 280 279
273 274 274 276 279 283 285 283 284 287 286 287 288 290 290 287 282 277 279 286 287 285 282 278 277 279 281 284 286 286 285 285 286 283 282 282 281 282 279 280 283 280 277
273 274 273 273 276 279 281 280 283 286 287 288 286 286 287 284 282 281 279 282 282 282 282 280 278 279 282 281 281 285 286 286 286 283 281 280 281 283 285 286 286 283 279
273 273 270 269 272 275 277 279 282 285 286 286 286 284 285 282 280 282 282 280 281 283 283 284 284 283 281 278 278 283 285 284 282 280 280 281 281 282 284 287 287 285 284
271 270 269 269 271 272 275 279 282 285 285 285 285 282 282 277 276 279 281 281 282 284 285 285 284 286 281 278 279 282 283 283 280 280 279 279 282 284 287 288 286 285 283
268 268 268 270 271 270 273 276 280 282 282 282 282 281 280 276 277 278 280 281 282 285 286 284 284 285 282 280 281 281 282 281 279 278 279 279 280 284 286 288 287 287 284
Height
5879 5878 5877 5876 5875 5875 5874 5873 5872 5872 5871 5871 5870 5870 5869 5869 5869 5869 5869 5869 5869 5869 5869 5869 5870 5870 5871 5871 5872 5873 5873 5874 5874 5875 5875 5875 5876 5876 5877 5877 5877 5878 5878
5879 5878 5877 5876 5875 5874 5873 5873 5872 5871 5870 5870 5870 5869 5869 5869 5869 5868 5868 5868 5868 5869 5869 5869 5869 5869 5870 5871 5871 5872 5873 5874 5874 5875 5875 5876 5876 5876 5877 5877 5878 5878 5878
5879 5878 5877 5876 5875 5874 5873 5872 5871 5870 5870 5869 5869 5869 5868 5868 5868 5868 5868 5868 5868 5868 5868 5869 5869 5869 5870 5870 5871 5872 5872 5873 5874 5875 5875 5876 5876 5876 5877 5877 5877 5877 5878
5878 5878 5876 5875 5874 5874 5873 5872 5871 5870 5869 5869 5869 5868 5868 5868 5867 5867 5867 5867 5868 5868 5868 5868 5868 5869 5869 5870 5871 5871 5872 5873 5873 5874 5875 5875 5875 5875 5876 5877 5877 5877 5878
5878 5877 5876 5875 5874 5873 5872 5871 5871 5870 5869 5869 5868 5868 5868 5867 5867 5867 5867 5867 5867 5867 5868 5868 5868 5868 5869 5870 5871 5871 5872 5873 5873 5874 5875 5875 5875 5875 5876 5876 5877 5877 5878
5877 5876 5875 5874 5874 5873 5872 5871 5870 5869 5869 5868 5868 5868 5867 5867 5867 5867 5867 5867 5867 5867 5868 5868 5868 5868 5869 5869 5870 5871 5872 5873 5873 5874 5874 5875 5875 5875 5876 5876 5876 5877 5877
5877 5876 5875 5874 5873 5872 5871 5871 5870 5869 5868 5868 5867 5867 5867 5867 5867 5866 5866 5866 5866 5867 5867 5868 5868 5868 5869 5870 5870 5871 5872 5872 5873 5873 5874 5874 5874 5875 5875 5876 5876 5877 5877
5876 5875 5874 5873 5872 5872 5871 5870 5870 5869 5868 5867 5866 5866 5866 5866 5866 5866 5866 5866 5866 5866 5867 5867 5867 5868 5869 5869 5870 5870 5871 5872 5872 5872 5873 5874 5874 5875 5875 5875 5876 5876 5877
5875 5875 5874 5873 5872 5871 5870 5870 5869 5868 5867 5866 5866 5866 5866 5865 5865 5865 5865 5865 5865 5866 5866 5866 5867 5867 5868 5869 5869 5870 5870 5871 5871 5872 5872 5873 5873 5874 5874 5875 5875 5875 5876
5874 5873 5873 5872 5871 5870 5870 5869 5868 5867 5867 5866 5865 5865 5865 5865 5864 5864 5864 5864 5864 5865 5865 5865 5866 5866 5867 5867 5868 5869 5869 5869 5870 5870 5871 5872 5872 5873 5873 5874 5874 5875 5875
5873 5872 5872 5871 5870 5870 5869 5868 5868 5867 5866 5866 5865 5864 5864 5864 5863 5863 5863 5863 5863 5864 5864 5864 5865 5865 5866 5866 5867 5867 5868 5868 5869 5869 5870 5870 5871 5871 5872 5873 5873 5873 5874
5872 5871 5870 5870 5869 5868 5868 5867 5867 5866 5865 5865 5864 5864 5863 5862 5862 5862 5862 5862 5862 5863 5863 5863 5863 5864 5864 5865 5865 5866 5866 5867 5868 5868 5868 5869 5869 5870 5870 5871 5872 5872 5873
5870 5870 5869 5869 5868 5867 5867 5866 5866 5865 5864 5864 5863 5863 5862 5862 5861 5861 5861 5861 5861 5862 5862 5862 5862 5863 5863 5863 5864 5864 5865 5865 5866 5866 5866 5867 5868 5868 5869 5870 5870 5870 5871
5869 5868 5868 5867 5867 5866 5865 5865 5864 5864 5863 5862 5862 5862 5861 5861 5861 5860 5860 5860 5860 5860 5861 5861 5861 5861 5861 5861 5861 5862 5863 5864 5865 5865 5865 5865 5866 5867 5868 5868 5868 5869 5869
5867 5867 5866 5866 5865 5864 5864 5863 5863 5862 5862 5861 5860 5860 5860 5860 5860 5859 5859 5859 5859 5859 5859 5859 5860 5860 5860 5859 5859 5860 5861 5862 5863 5863 5863 5864 5864 5865 5865 5866 5866 5866 5866
5864 5864 5864 5864 5863 5862 5862 5861 5861 5861 5860 5859 5859 5859 5858 5859 5859 5858 5858 5858 5857 5857 5858 5858 5858 5858 5858 5857 5857 5858 5859 5860 5861 5861 5861 5862 5862 5863 5863 5863 5864 5864 5864
5862 5862 5862 5861 5861 5860 5859 5859 5859 5858 5858 5857 5857 5857 5857 5857 5857 5856 5856 5856 5856 5856 5856 5856 5856 5856 5856 5856 5856 5857 5857 5858 5859 5859 5859 5860 5860 5861 5861 5861 5861 5861 5861
5859 5859 5859 5859 5858 5858 5857 5856 5856 5856 5856 5855 5855 5855 5855 5855 5855 5854 5854 5854 5854 5854 5854 5854 5854 5854 5854 5855 5855 5855 5856 5856 5857 5857 5857 5858 5858 5859 5859 5858 5858 5858 5859
5856 5856 5856 5856 5856 5855 5855 5855 5854 5854 5854 5853 5852 5852 5852 5853 5852 5852 5852 5852 5852 5852 5852 5852 5852 5852 5853 5853 5853 5853 5853 5854 5854 5855 5855 5855 5856 5856 5856 5856 5856 5856 5856
5853 5853 5853 5853 5853 5853 5852 5852 5852 5852 5851 5851 5851 5851 5851 5850 5850 5850 5850 5850 5850 5850 5850 5850 5850 5850 5851 5851 5851 5851 5851 5852 5852 5852 5852 5852 5853 5853 5853 5853 5853 5853 5853
5850 5850 5850 5850 5850 5850 5850 5850 5849 5849 5849 5849 5849 5849 5848 5848 5848 5848 5848 5848 5848 5848 5848 5848 5848 5848 5848 5848 5848 5849 5849 5849 5849 5849 5849 5849 5850 5850 5850 5850 5850 5850 5850
5846 5847 5847 5847 5847 5847 5847 5847 5847 5847 5847 5846 5846 5846 5845 5845 5845 5845 5845 5845 5845 5845 5845 5845 5845 5845 5846 5846 5846 5845 5846 5846 5845 5845 5846 5846 5846 5846 5846 5847 5847 5847 5847
5842 5843 5843 5843 5843 5843 5843 5844 5844 5844 5844 5843 5843 5843 5843 5842 5842 5842 5842 5842 5842 5842 5842 5842 5842 5842 5842 5842 5842 5842 5842 5842 5842 5842 5842 5842 5842 5843 5843 5843 5843 5843 5843
5838 5838 5839 5839 5839 5839 5840 5841 5841 5841 5841 5841 5840 5840 5840 5840 5840 5839 5839 5839 5839 5839 5839 5839 5839 5839 5838 5838 5838 5838 5838 5838 5838 5839 5839 5838 5839 5839 5839 5838 5838 5838 5838
5833 5833 5834 5835 5836 5836 5836 5837 5838 5838 5838 5838 5837 5836 5836 5837 5837 5836 5836 5836 5836 5836 5835 5835 5835 5835 5834 5834 5834 5834 5834 5833 5833 5834 5834 5834 5834 5834 5834 5834 5833 5833 5833
5828 5829 5830 5831 5831 5832 5832 5833 5833 5834 5834 5834 5833 5833 5833 5833 5833 5833 5833 5833 5832 5832 5832 5831 5831 5830 5830 5830 5830 5830 5829 5829 5829 5829 5829 5830 5830 5829 5829 5829 5828 5828 5828